Starlink 32594

operational
NORAD ID: 62302 Int'l Des: 2024-239 Owner: SPXS Country: US Constellation: starlink
LEOCIRCULAR

关于 Starlink 32594

正在加载描述...

实时位置

正在加载3D地球...

即将过境

高度历史

Altitude vs Time

uPlot chart will show altitude changes over time

两行轨道根数

1 62302U 24239B 25306.06867474 .00032624 00000-0 11084-2 0 9994
2 62302 53.1593 64.4905 0001819 88.8660 271.2549 15.30209397 49871
Epoch: Nov 2, 2025 • Age: 41 hours

当前状态

高度 485.5 km
速度 7.62 km/s
星下点 -31.66°S, 72.65°E
发射日期 Dec 13, 2024
运行时间 0.8 years
类型 internet

技术详情

分类 Payload
质量 730.00 kg
干质量 700.00 kg
总质量 730.00 kg
长度 0.30 m
直径 4.10 m
跨度 29.00 m
形状 Box + pan
制造商 SPXS
平台类型 Starlink V2M
阶段状态 In Orbit
所有者/国家 SPXS/US

大型星座

Loading constellations...